| time (UTC) | temp F | wind direction | speed MPH | gust MPH | rain 1hr in | rain 24hr in | rain mn in | humidity % | barometer mb |
| 20260508145552 | 75 | 360 | 8.0 | 11.0 | 0.00 | 0.00 | 0.00 | 29 | 976.7 |
| 20260508145048 | 75 | 360 | 6.0 | 11.0 | 0.00 | 0.00 | 0.00 | 30 | 976.7 |
| 20260508144548 | 74 | 360 | 9.0 | 12.0 | 0.00 | 0.00 | 0.00 | 30 | 976.7 |
| 20260508144048 | 74 | 360 | 8.0 | 12.0 | 0.00 | 0.00 | 0.00 | 30 | 976.7 |
| 20260508143548 | 73 | 360 | 8.0 | 14.0 | 0.00 | 0.00 | 0.00 | 31 | 976.7 |
| 20260508143108 | 73 | 360 | 10.0 | 14.0 | 0.00 | 0.00 | 0.00 | 31 | 976.7 |
| 20260508142548 | 73 | 360 | 9.0 | 14.0 | 0.00 | 0.00 | 0.00 | 31 | 976.6 |
| 20260508142048 | 72 | 360 | 11.0 | 15.0 | 0.00 | 0.00 | 0.00 | 32 | 976.6 |
| 20260508141556 | 72 | 360 | 11.0 | 16.0 | 0.00 | 0.00 | 0.00 | 32 | 976.6 |
| 20260508141049 | 71 | 360 | 12.0 | 16.0 | 0.00 | 0.00 | 0.00 | 32 | 976.5 |
| 20260508140550 | 70 | 360 | 11.0 | 13.0 | 0.00 | 0.00 | 0.00 | 33 | 976.4 |
| 20260508140055 | 69 | 360 | 7.0 | 11.0 | 0.00 | 0.00 | 0.00 | 35 | 976.5 |
| 20260508135548 | 67 | 360 | 7.0 | 10.0 | 0.00 | 0.00 | 0.00 | 36 | 976.5 |
| 20260508135049 | 67 | 360 | 6.0 | 9.0 | 0.00 | 0.00 | 0.00 | 37 | 976.3 |
| 20260508134549 | 66 | 360 | 5.0 | 8.0 | 0.00 | 0.00 | 0.00 | 37 | 976.2 |
| 20260508134048 | 66 | 360 | 6.0 | 10.0 | 0.00 | 0.00 | 0.00 | 37 | 976.1 |
| 20260508133548 | 65 | 360 | 5.0 | 10.0 | 0.00 | 0.00 | 0.00 | 37 | 976.0 |
| 20260508133049 | 66 | 360 | 8.0 | 10.0 | 0.00 | 0.00 | 0.00 | 36 | 975.9 |
| 20260508132548 | 67 | 360 | 7.0 | 9.0 | 0.00 | 0.00 | 0.00 | 35 | 975.9 |
| 20260508132048 | 68 | 360 | 6.0 | 10.0 | 0.00 | 0.00 | 0.00 | 33 | 975.8 |
| 20260508131548 | 68 | 360 | 7.0 | 10.0 | 0.00 | 0.00 | 0.00 | 33 | 975.8 |
| 20260508131049 | 68 | 360 | 7.0 | 9.0 | 0.00 | 0.00 | 0.00 | 32 | 975.6 |
| 20260508130551 | 68 | 360 | 8.0 | 10.0 | 0.00 | 0.00 | 0.00 | 32 | 975.5 |
| 20260508130048 | 68 | 360 | 8.0 | 10.0 | 0.00 | 0.00 | 0.00 | 32 | 975.4 |
| 20260508125548 | 69 | 360 | 6.0 | 10.0 | 0.00 | 0.00 | 0.00 | 31 | 975.4 |
| 20260508125048 | 70 | 360 | 8.0 | 10.0 | 0.00 | 0.00 | 0.00 | 30 | 975.4 |
| 20260508124548 | 70 | 360 | 8.0 | 10.0 | 0.00 | 0.00 | 0.00 | 30 | 975.3 |
| 20260508124048 | 71 | 360 | 8.0 | 9.0 | 0.00 | 0.00 | 0.00 | 30 | 975.1 |
| 20260508123548 | 71 | 360 | 7.0 | 9.0 | 0.00 | 0.00 | 0.00 | 29 | 975.0 |
| 20260508123051 | 71 | 360 | 8.0 | 9.0 | 0.00 | 0.00 | 0.00 | 29 | 974.8 |
| 20260508122548 | 72 | 360 | 5.0 | 9.0 | 0.00 | 0.00 | 0.00 | 29 | 974.9 |
| 20260508122048 | 72 | 360 | 6.0 | 10.0 | 0.00 | 0.00 | 0.00 | 28 | 974.9 |
| 20260508121548 | 72 | 360 | 8.0 | 11.0 | 0.00 | 0.00 | 0.00 | 29 | 975.0 |
| 20260508121049 | 71 | 360 | 8.0 | 11.0 | 0.00 | 0.00 | 0.00 | 29 | 974.9 |
| 20260508120548 | 71 | 360 | 7.0 | 9.0 | 0.00 | 0.00 | 0.00 | 28 | 975.0 |
| 20260508120059 | 71 | 360 | 8.0 | 9.0 | 0.00 | 0.00 | 0.00 | 28 | 975.0 |
| 20260508115553 | 71 | 360 | 7.0 | 9.0 | 0.00 | 0.00 | 0.00 | 27 | 974.9 |
| 20260508115052 | 71 | 360 | 8.0 | 9.0 | 0.00 | 0.00 | 0.00 | 27 | 974.8 |
| 20260508114556 | 72 | 360 | 6.0 | 10.0 | 0.00 | 0.00 | 0.00 | 27 | 974.8 |
| 20260508114048 | 72 | 360 | 7.0 | 10.0 | 0.00 | 0.00 | 0.00 | 26 | 974.8 |
| 20260508113548 | 72 | 360 | 7.0 | 12.0 | 0.00 | 0.00 | 0.00 | 26 | 974.9 |
| 20260508113050 | 72 | 360 | 8.0 | 13.0 | 0.00 | 0.00 | 0.00 | 26 | 974.8 |
| 20260508112549 | 73 | 360 | 9.0 | 13.0 | 0.00 | 0.00 | 0.00 | 26 | 974.8 |
| 20260508112048 | 72 | 360 | 9.0 | 13.0 | 0.00 | 0.00 | 0.00 | 25 | 974.7 |
| 20260508111548 | 72 | 360 | 8.0 | 11.0 | 0.00 | 0.00 | 0.00 | 25 | 974.7 |
| 20260508111048 | 72 | 360 | 6.0 | 13.0 | 0.00 | 0.00 | 0.00 | 25 | 974.7 |
| 20260508110548 | 72 | 360 | 8.0 | 13.0 | 0.00 | 0.00 | 0.00 | 25 | 974.7 |
| 20260508110053 | 72 | 360 | 8.0 | 10.0 | 0.00 | 0.00 | 0.00 | 25 | 974.7 |
| 20260508105551 | 72 | 360 | 5.0 | 9.0 | 0.00 | 0.00 | 0.00 | 25 | 974.7 |
| 20260508105047 | 73 | 360 | 5.0 | 9.0 | 0.00 | 0.00 | 0.00 | 25 | 974.6 |
| 20260508104549 | 73 | 360 | 2.0 | 4.0 | 0.00 | 0.00 | 0.00 | 25 | 974.5 |
| 20260508104048 | 73 | 360 | 3.0 | 8.0 | 0.00 | 0.00 | 0.00 | 25 | 974.4 |
| 20260508103548 | 73 | 360 | 5.0 | 8.0 | 0.00 | 0.00 | 0.00 | 25 | 974.4 |
| 20260508103051 | 74 | 360 | 4.0 | 8.0 | 0.00 | 0.00 | 0.00 | 25 | 974.4 |
| 20260508102549 | 75 | 360 | 4.0 | 6.0 | 0.00 | 0.00 | 0.00 | 26 | 974.4 |
| 20260508102048 | 76 | 360 | 4.0 | 6.0 | 0.00 | 0.00 | 0.00 | 25 | 974.5 |
| 20260508101553 | 76 | 360 | 0.0 | 3.0 | 0.00 | 0.00 | 0.00 | 24 | 974.5 |
| 20260508101049 | 77 | 360 | 0.0 | 2.0 | 0.00 | 0.00 | 0.00 | 23 | 974.4 |
| 20260508100553 | 78 | 360 | 1.0 | 5.0 | 0.00 | 0.00 | 0.00 | 23 | 974.5 |
| 20260508100104 | 79 | 360 | 3.0 | 6.0 | 0.00 | 0.00 | 0.00 | 23 | 974.4 |
| 20260508095548 | 80 | 360 | 3.0 | 6.0 | 0.00 | 0.00 | 0.00 | 22 | 974.4 |
| 20260508095048 | 82 | 360 | 3.0 | 6.0 | 0.00 | 0.00 | 0.00 | 21 | 974.2 |
| 20260508094549 | 83 | 360 | 3.0 | 13.0 | 0.00 | 0.00 | 0.00 | 19 | 974.1 |
| 20260508094048 | 84 | 360 | 3.0 | 13.0 | 0.00 | 0.00 | 0.00 | 17 | 974.2 |
| 20260508093549 | 84 | 360 | 6.0 | 11.0 | 0.00 | 0.00 | 0.00 | 17 | 974.1 |
| 20260508093045 | 84 | 360 | 3.0 | 11.0 | 0.00 | 0.00 | 0.00 | 17 | 974.0 |
| 20260508092545 | 84 | 360 | 5.0 | 11.0 | 0.00 | 0.00 | 0.00 | 17 | 974.0 |
| 20260508092048 | 84 | 360 | 3.0 | 12.0 | 0.00 | 0.00 | 0.00 | 17 | 974.0 |
| 20260508091604 | 85 | 360 | 6.0 | 14.0 | 0.00 | 0.00 | 0.00 | 17 | 974.0 |
| 20260508091045 | 85 | 360 | 4.0 | 11.0 | 0.00 | 0.00 | 0.00 | 17 | 973.9 |
| 20260508090548 | 85 | 360 | 1.0 | 12.0 | 0.00 | 0.00 | 0.00 | 16 | 974.0 |
| 20260508090048 | 85 | 360 | 2.0 | 17.0 | 0.00 | 0.00 | 0.00 | 16 | 973.9 |
| 20260508085544 | 85 | 360 | 5.0 | 17.0 | 0.00 | 0.00 | 0.00 | 16 | 973.8 |
| 20260508085044 | 86 | 360 | 8.0 | 14.0 | 0.00 | 0.00 | 0.00 | 16 | 973.8 |
| 20260508084544 | 86 | 360 | 6.0 | 18.0 | 0.00 | 0.00 | 0.00 | 16 | 973.8 |
| 20260508084049 | 86 | 360 | 6.0 | 24.0 | 0.00 | 0.00 | 0.00 | 16 | 973.8 |
| 20260508083545 | 86 | 360 | 13.0 | 24.0 | 0.00 | 0.00 | 0.00 | 16 | 974.0 |
| 20260508083044 | 86 | 360 | 13.0 | 23.0 | 0.00 | 0.00 | 0.00 | 16 | 973.9 |
| 20260508082546 | 86 | 360 | 10.0 | 21.0 | 0.00 | 0.00 | 0.00 | 16 | 973.9 |
| 20260508082045 | 87 | 360 | 12.0 | 21.0 | 0.00 | 0.00 | 0.00 | 16 | 973.9 |
| 20260508081606 | 87 | 360 | 11.0 | 19.0 | 0.00 | 0.00 | 0.00 | 15 | 973.8 |
| 20260508081045 | 87 | 360 | 11.0 | 19.0 | 0.00 | 0.00 | 0.00 | 15 | 973.8 |
| 20260508080544 | 87 | 360 | 12.0 | 21.0 | 0.00 | 0.00 | 0.00 | 15 | 973.8 |
| 20260508080050 | 87 | 360 | 10.0 | 21.0 | 0.00 | 0.00 | 0.00 | 15 | 973.8 |
| 20260508075545 | 87 | 360 | 11.0 | 19.0 | 0.00 | 0.00 | 0.00 | 15 | 973.8 |
| 20260508075047 | 87 | 360 | 11.0 | 22.0 | 0.00 | 0.00 | 0.00 | 15 | 973.8 |
| 20260508074545 | 87 | 360 | 11.0 | 22.0 | 0.00 | 0.00 | 0.00 | 15 | 973.8 |
| 20260508074046 | 88 | 360 | 9.0 | 21.0 | 0.00 | 0.00 | 0.00 | 15 | 973.8 |
| 20260508073548 | 88 | 360 | 14.0 | 22.0 | 0.00 | 0.00 | 0.00 | 15 | 973.8 |
| 20260508073048 | 88 | 360 | 11.0 | 23.0 | 0.00 | 0.00 | 0.00 | 15 | 973.8 |
| 20260508072545 | 88 | 360 | 12.0 | 23.0 | 0.00 | 0.00 | 0.00 | 15 | 973.8 |
| 20260508072045 | 88 | 360 | 12.0 | 22.0 | 0.00 | 0.00 | 0.00 | 15 | 973.8 |
| 20260508071545 | 88 | 360 | 11.0 | 21.0 | 0.00 | 0.00 | 0.00 | 15 | 973.8 |
| 20260508071047 | 88 | 360 | 14.0 | 25.0 | 0.00 | 0.00 | 0.00 | 15 | 973.8 |
| 20260508070547 | 88 | 360 | 13.0 | 25.0 | 0.00 | 0.00 | 0.00 | 15 | 973.7 |
| 20260508070045 | 88 | 360 | 13.0 | 23.0 | 0.00 | 0.00 | 0.00 | 16 | 973.8 |
| 20260508065544 | 88 | 360 | 11.0 | 21.0 | 0.00 | 0.00 | 0.00 | 15 | 973.9 |
| 20260508065047 | 88 | 360 | 10.0 | 21.0 | 0.00 | 0.00 | 0.00 | 16 | 973.7 |
| 20260508064546 | 88 | 360 | 10.0 | 18.0 | 0.00 | 0.00 | 0.00 | 16 | 973.7 |
| 20260508064044 | 88 | 360 | 11.0 | 18.0 | 0.00 | 0.00 | 0.00 | 16 | 973.7 |
| 20260508063545 | 88 | 360 | 10.0 | 17.0 | 0.00 | 0.00 | 0.00 | 16 | 973.8 |
| 20260508063050 | 88 | 360 | 7.0 | 21.0 | 0.00 | 0.00 | 0.00 | 16 | 973.8 |
| 20260508062544 | 88 | 360 | 11.0 | 21.0 | 0.00 | 0.00 | 0.00 | 16 | 973.9 |
| 20260508062044 | 88 | 360 | 11.0 | 18.0 | 0.00 | 0.00 | 0.00 | 15 | 973.8 |
| 20260508061545 | 88 | 360 | 8.0 | 14.0 | 0.00 | 0.00 | 0.00 | 15 | 973.9 |
| 20260508061045 | 88 | 360 | 11.0 | 18.0 | 0.00 | 0.00 | 0.00 | 15 | 974.0 |
| 20260508060545 | 88 | 360 | 12.0 | 18.0 | 0.00 | 0.00 | 0.00 | 15 | 974.0 |
| 20260508060057 | 88 | 360 | 6.0 | 16.0 | 0.00 | 0.00 | 0.00 | 14 | 974.1 |
| 20260508055547 | 88 | 360 | 8.0 | 18.0 | 0.00 | 0.00 | 0.00 | 13 | 974.1 |
| 20260508055044 | 88 | 360 | 10.0 | 19.0 | 0.00 | 0.00 | 0.00 | 13 | 974.0 |
| 20260508054622 | 88 | 360 | 9.0 | 19.0 | 0.00 | 0.00 | 0.00 | 13 | 974.0 |
| 20260508054045 | 88 | 360 | 11.0 | 17.0 | 0.00 | 0.00 | 0.00 | 13 | 974.0 |
| 20260508053544 | 88 | 360 | 11.0 | 16.0 | 0.00 | 0.00 | 0.00 | 13 | 974.1 |
| 20260508053051 | 88 | 360 | 11.0 | 17.0 | 0.00 | 0.00 | 0.00 | 12 | 974.1 |
| 20260508052545 | 88 | 360 | 11.0 | 17.0 | 0.00 | 0.00 | 0.00 | 12 | 974.2 |
| 20260508052045 | 88 | 360 | 11.0 | 17.0 | 0.00 | 0.00 | 0.00 | 12 | 974.1 |
| 20260508051544 | 88 | 360 | 10.0 | 17.0 | 0.00 | 0.00 | 0.00 | 12 | 974.1 |
| 20260508051045 | 88 | 360 | 8.0 | 18.0 | 0.00 | 0.00 | 0.00 | 12 | 974.0 |
| 20260508050545 | 89 | 360 | 11.0 | 20.0 | 0.00 | 0.00 | 0.00 | 11 | 974.2 |
| 20260508050045 | 89 | 360 | 10.0 | 20.0 | 0.00 | 0.00 | 0.00 | 11 | 974.0 |
| 20260508045544 | 90 | 360 | 12.0 | 20.0 | 0.00 | 0.00 | 0.00 | 11 | 974.1 |
| 20260508045044 | 90 | 360 | 12.0 | 20.0 | 0.00 | 0.00 | 0.00 | 11 | 974.0 |
| 20260508044545 | 90 | 360 | 13.0 | 20.0 | 0.00 | 0.00 | 0.00 | 11 | 973.9 |
| 20260508044045 | 90 | 360 | 13.0 | 20.0 | 0.00 | 0.00 | 0.00 | 11 | 973.9 |
| 20260508043544 | 90 | 360 | 11.0 | 18.0 | 0.00 | 0.00 | 0.00 | 11 | 973.8 |
| 20260508043049 | 90 | 360 | 11.0 | 18.0 | 0.00 | 0.00 | 0.00 | 11 | 973.8 |
| 20260508042547 | 90 | 360 | 8.0 | 16.0 | 0.00 | 0.00 | 0.00 | 11 | 973.7 |
| 20260508042044 | 90 | 360 | 8.0 | 16.0 | 0.00 | 0.00 | 0.00 | 11 | 973.7 |
| 20260508041545 | 90 | 360 | 8.0 | 16.0 | 0.00 | 0.00 | 0.00 | 11 | 973.6 |
| 20260508041044 | 90 | 360 | 6.0 | 16.0 | 0.00 | 0.00 | 0.00 | 11 | 973.5 |
| 20260508040545 | 90 | 360 | 7.0 | 14.0 | 0.00 | 0.00 | 0.00 | 11 | 973.5 |
| 20260508040045 | 90 | 360 | 8.0 | 14.0 | 0.00 | 0.00 | 0.00 | 11 | 973.6 |
| 20260508035544 | 90 | 360 | 9.0 | 14.0 | 0.00 | 0.00 | 0.00 | 10 | 973.5 |
| 20260508035044 | 90 | 360 | 8.0 | 13.0 | 0.00 | 0.00 | 0.00 | 10 | 973.4 |
| 20260508034550 | 90 | 360 | 8.0 | 14.0 | 0.00 | 0.00 | 0.00 | 10 | 973.4 |
| 20260508034044 | 90 | 360 | 8.0 | 14.0 | 0.00 | 0.00 | 0.00 | 9 | 973.2 |
| 20260508033544 | 90 | 360 | 8.0 | 14.0 | 0.00 | 0.00 | 0.00 | 9 | 973.2 |
| 20260508033044 | 90 | 360 | 8.0 | 14.0 | 0.00 | 0.00 | 0.00 | 9 | 973.1 |
| 20260508032547 | 90 | 360 | 9.0 | 15.0 | 0.00 | 0.00 | 0.00 | 9 | 973.1 |
| 20260508032044 | 90 | 360 | 9.0 | 15.0 | 0.00 | 0.00 | 0.00 | 9 | 973.0 |
| 20260508031548 | 90 | 360 | 7.0 | 14.0 | 0.00 | 0.00 | 0.00 | 9 | 972.9 |
| 20260508031044 | 90 | 360 | 7.0 | 13.0 | 0.00 | 0.00 | 0.00 | 9 | 973.0 |
| 20260508030544 | 90 | 360 | 8.0 | 13.0 | 0.00 | 0.00 | 0.00 | 9 | 972.9 |
| 20260508030046 | 91 | 360 | 6.0 | 11.0 | 0.00 | 0.00 | 0.00 | 9 | 972.9 |
| 20260508025544 | 91 | 360 | 6.0 | 12.0 | 0.00 | 0.00 | 0.00 | 9 | 972.8 |
| 20260508025045 | 91 | 360 | 6.0 | 12.0 | 0.00 | 0.00 | 0.00 | 9 | 972.7 |
| 20260508024556 | 91 | 360 | 6.0 | 11.0 | 0.00 | 0.00 | 0.00 | 9 | 972.7 |
| 20260508024047 | 91 | 360 | 4.0 | 14.0 | 0.00 | 0.00 | 0.00 | 9 | 972.7 |
| 20260508023544 | 91 | 360 | 5.0 | 14.0 | 0.00 | 0.00 | 0.00 | 9 | 972.8 |
| 20260508023044 | 92 | 360 | 4.0 | 10.0 | 0.00 | 0.00 | 0.00 | 9 | 972.6 |
| 20260508022548 | 92 | 360 | 5.0 | 10.0 | 0.00 | 0.00 | 0.00 | 9 | 972.5 |
| 20260508022045 | 92 | 360 | 4.0 | 10.0 | 0.00 | 0.00 | 0.00 | 9 | 972.5 |
| 20260508021545 | 92 | 360 | 5.0 | 13.0 | 0.00 | 0.00 | 0.00 | 9 | 972.6 |
| 20260508021046 | 92 | 360 | 7.0 | 13.0 | 0.00 | 0.00 | 0.00 | 9 | 972.5 |
| 20260508020544 | 92 | 360 | 7.0 | 14.0 | 0.00 | 0.00 | 0.00 | 9 | 972.5 |
| 20260508020051 | 92 | 360 | 7.0 | 14.0 | 0.00 | 0.00 | 0.00 | 9 | 972.5 |
| 20260508015544 | 92 | 360 | 6.0 | 13.0 | 0.00 | 0.00 | 0.00 | 9 | 972.3 |
| 20260508015045 | 93 | 360 | 9.0 | 13.0 | 0.00 | 0.00 | 0.00 | 9 | 972.4 |
| 20260508014545 | 93 | 360 | 6.0 | 16.0 | 0.00 | 0.00 | 0.00 | 9 | 972.3 |
| 20260508014044 | 93 | 360 | 8.0 | 16.0 | 0.00 | 0.00 | 0.00 | 9 | 972.4 |
| 20260508013544 | 93 | 360 | 5.0 | 11.0 | 0.00 | 0.00 | 0.00 | 9 | 972.3 |
| 20260508013044 | 93 | 360 | 7.0 | 11.0 | 0.00 | 0.00 | 0.00 | 9 | 972.2 |
| 20260508012544 | 94 | 264 | 5.0 | 11.0 | 0.00 | 0.00 | 0.00 | 9 | 972.3 |
| 20260508012044 | 94 | 254 | 7.0 | 12.0 | 0.00 | 0.00 | 0.00 | 9 | 972.2 |
| 20260508011545 | 94 | 234 | 7.0 | 12.0 | 0.00 | 0.00 | 0.00 | 9 | 972.3 |
| 20260508011045 | 94 | 244 | 8.0 | 12.0 | 0.00 | 0.00 | 0.00 | 9 | 972.3 |
| 20260508010545 | 94 | 263 | 5.0 | 11.0 | 0.00 | 0.00 | 0.00 | 9 | 972.2 |
| 20260508010050 | 94 | 271 | 8.0 | 11.0 | 0.00 | 0.00 | 0.00 | 9 | 972.3 |
| 20260508005547 | 94 | 225 | 5.0 | 11.0 | 0.00 | 0.00 | 0.00 | 9 | 972.3 |
| 20260508005045 | 94 | 227 | 6.0 | 12.0 | 0.00 | 0.00 | 0.00 | 9 | 972.2 |
| 20260508004545 | 94 | 227 | 6.0 | 12.0 | 0.00 | 0.00 | 0.00 | 9 | 972.3 |
| 20260508004044 | 94 | 235 | 8.0 | 12.0 | 0.00 | 0.00 | 0.00 | 9 | 972.3 |
| 20260508003544 | 94 | 218 | 7.0 | 13.0 | 0.00 | 0.00 | 0.00 | 9 | 972.3 |
| 20260508003048 | 95 | 266 | 4.0 | 13.0 | 0.00 | 0.00 | 0.00 | 9 | 972.4 |
| 20260508002544 | 95 | 238 | 5.0 | 13.0 | 0.00 | 0.00 | 0.00 | 9 | 972.3 |
| 20260508002044 | 94 | 243 | 4.0 | 13.0 | 0.00 | 0.00 | 0.00 | 8 | 972.4 |
| 20260508001545 | 94 | 227 | 2.0 | 12.0 | 0.00 | 0.00 | 0.00 | 9 | 972.2 |
| 20260508001045 | 94 | 252 | 7.0 | 12.0 | 0.00 | 0.00 | 0.00 | 9 | 972.3 |
| 20260508000545 | 94 | 297 | 5.0 | 13.0 | 0.00 | 0.00 | 0.00 | 9 | 972.3 |
| 20260508000044 | 94 | 300 | 7.0 | 13.0 | 0.00 | 0.00 | 0.00 | 9 | 972.4 |
| 20260507235544 | 95 | 286 | 5.0 | 11.0 | 0.00 | 0.00 | 0.00 | 9 | 972.3 |
| 20260507235044 | 95 | 288 | 5.0 | 11.0 | 0.00 | 0.00 | 0.00 | 9 | 972.4 |
| 20260507234546 | 95 | 278 | 5.0 | 9.0 | 0.00 | 0.00 | 0.00 | 9 | 972.4 |
| 20260507234046 | 94 | 335 | 2.0 | 9.0 | 0.00 | 0.00 | 0.00 | 9 | 972.4 |
| 20260507233544 | 94 | 302 | 3.0 | 12.0 | 0.00 | 0.00 | 0.00 | 8 | 972.6 |
| 20260507233044 | 94 | 281 | 8.0 | 12.0 | 0.00 | 0.00 | 0.00 | 8 | 972.5 |
| 20260507232544 | 94 | 313 | 2.0 | 11.0 | 0.00 | 0.00 | 0.00 | 9 | 972.5 |
| 20260507232044 | 94 | 273 | 8.0 | 13.0 | 0.00 | 0.00 | 0.00 | 9 | 972.6 |
| 20260507231547 | 94 | 314 | 9.0 | 14.0 | 0.00 | 0.00 | 0.00 | 8 | 972.6 |
| 20260507231046 | 94 | 288 | 9.0 | 16.0 | 0.00 | 0.00 | 0.00 | 8 | 972.6 |
| 20260507230548 | 95 | 332 | 11.0 | 19.0 | 0.00 | 0.00 | 0.00 | 8 | 972.5 |
| 20260507230045 | 96 | 293 | 11.0 | 19.0 | 0.00 | 0.00 | 0.00 | 8 | 972.5 |
| 20260507225544 | 96 | 230 | 7.0 | 11.0 | 0.00 | 0.00 | 0.00 | 8 | 972.7 |
| 20260507225045 | 96 | 252 | 1.0 | 3.0 | 0.00 | 0.00 | 0.00 | 8 | 972.8 |
| 20260507224547 | 95 | 252 | 0.0 | 4.0 | 0.00 | 0.00 | 0.00 | 8 | 972.8 |
| 20260507224044 | 94 | 257 | 2.0 | 10.0 | 0.00 | 0.00 | 0.00 | 8 | 972.7 |
| 20260507223544 | 94 | 303 | 6.0 | 10.0 | 0.00 | 0.00 | 0.00 | 8 | 972.9 |
| 20260507223045 | 95 | 323 | 5.0 | 14.0 | 0.00 | 0.00 | 0.00 | 8 | 972.9 |
| 20260507222544 | 95 | 298 | 8.0 | 14.0 | 0.00 | 0.00 | 0.00 | 8 | 972.9 |
| 20260507222044 | 96 | 298 | 7.0 | 13.0 | 0.00 | 0.00 | 0.00 | 7 | 972.9 |
| 20260507221544 | 96 | 260 | 0.0 | 13.0 | 0.00 | 0.00 | 0.00 | 7 | 973.1 |
| 20260507221049 | 96 | 238 | 7.0 | 12.0 | 0.00 | 0.00 | 0.00 | 7 | 973.2 |
| 20260507220544 | 96 | 229 | 4.0 | 11.0 | 0.00 | 0.00 | 0.00 | 7 | 973.2 |
| 20260507220045 | 96 | 219 | 3.0 | 11.0 | 0.00 | 0.00 | 0.00 | 7 | 973.4 |
| 20260507215545 | 95 | 312 | 1.0 | 7.0 | 0.00 | 0.00 | 0.00 | 7 | 973.4 |
| 20260507215045 | 94 | 61 | 3.0 | 10.0 | 0.00 | 0.00 | 0.00 | 7 | 973.5 |
| 20260507214549 | 94 | 294 | 4.0 | 10.0 | 0.00 | 0.00 | 0.00 | 8 | 973.6 |
| 20260507214044 | 93 | 59 | 5.0 | 10.0 | 0.00 | 0.00 | 0.00 | 8 | 973.6 |
| 20260507213544 | 94 | 315 | 4.0 | 12.0 | 0.00 | 0.00 | 0.00 | 8 | 973.7 |
| 20260507213044 | 93 | 292 | 4.0 | 12.0 | 0.00 | 0.00 | 0.00 | 8 | 973.8 |
| 20260507212544 | 93 | 320 | 6.0 | 15.0 | 0.00 | 0.00 | 0.00 | 7 | 973.9 |
| 20260507212044 | 93 | 355 | 6.0 | 15.0 | 0.00 | 0.00 | 0.00 | 7 | 973.9 |
| 20260507211547 | 94 | 315 | 3.0 | 14.0 | 0.00 | 0.00 | 0.00 | 7 | 973.9 |
| 20260507211045 | 95 | 325 | 7.0 | 14.0 | 0.00 | 0.00 | 0.00 | 7 | 973.9 |
| 20260507210544 | 96 | 229 | 3.0 | 11.0 | 0.00 | 0.00 | 0.00 | 7 | 974.1 |
| 20260507210044 | 96 | 213 | 6.0 | 11.0 | 0.00 | 0.00 | 0.00 | 7 | 974.1 |
| 20260507205544 | 95 | 228 | 1.0 | 9.0 | 0.00 | 0.00 | 0.00 | 8 | 974.2 |
| 20260507205047 | 95 | 241 | 6.0 | 9.0 | 0.00 | 0.00 | 0.00 | 8 | 974.2 |
| 20260507204545 | 95 | 207 | 5.0 | 9.0 | 0.00 | 0.00 | 0.00 | 8 | 974.4 |
| 20260507204047 | 95 | 242 | 3.0 | 11.0 | 0.00 | 0.00 | 0.00 | 8 | 974.6 |
| 20260507203545 | 95 | 211 | 5.0 | 11.0 | 0.00 | 0.00 | 0.00 | 9 | 974.5 |
| 20260507203048 | 94 | 209 | 5.0 | 21.0 | 0.00 | 0.00 | 0.00 | 9 | 974.6 |
| 20260507202544 | 92 | 191 | 8.0 | 21.0 | 0.00 | 0.00 | 0.00 | 9 | 974.8 |
| 20260507202044 | 93 | 78 | 2.0 | 12.0 | 0.00 | 0.00 | 0.00 | 8 | 974.8 |
| 20260507201545 | 93 | 60 | 4.0 | 10.0 | 0.00 | 0.00 | 0.00 | 9 | 974.8 |
| 20260507201044 | 93 | 300 | 5.0 | 9.0 | 0.00 | 0.00 | 0.00 | 9 | 974.9 |
| 20260507200544 | 92 | 99 | 1.0 | 9.0 | 0.00 | 0.00 | 0.00 | 9 | 975.1 |
| 20260507200045 | 91 | 360 | 3.0 | 10.0 | 0.00 | 0.00 | 0.00 | 10 | 975.2 |
| 20260507195544 | 91 | 355 | 5.0 | 10.0 | 0.00 | 0.00 | 0.00 | 9 | 975.3 |
| 20260507195046 | 91 | 23 | 2.0 | 9.0 | 0.00 | 0.00 | 0.00 | 9 | 975.3 |
| 20260507194547 | 91 | 360 | 2.0 | 9.0 | 0.00 | 0.00 | 0.00 | 10 | 975.5 |
| 20260507194047 | 91 | 314 | 3.0 | 11.0 | 0.00 | 0.00 | 0.00 | 10 | 975.7 |
| 20260507193544 | 91 | 27 | 3.0 | 11.0 | 0.00 | 0.00 | 0.00 | 10 | 975.7 |
| 20260507193044 | 91 | 63 | 6.0 | 11.0 | 0.00 | 0.00 | 0.00 | 10 | 975.8 |
| 20260507192544 | 91 | 26 | 3.0 | 11.0 | 0.00 | 0.00 | 0.00 | 10 | 975.9 |
| 20260507192045 | 92 | 70 | 5.0 | 11.0 | 0.00 | 0.00 | 0.00 | 10 | 975.9 |
| 20260507191544 | 92 | 180 | 2.0 | 13.0 | 0.00 | 0.00 | 0.00 | 10 | 976.0 |
| 20260507191044 | 91 | 74 | 3.0 | 8.0 | 0.00 | 0.00 | 0.00 | 10 | 976.0 |
| 20260507190544 | 91 | 44 | 2.0 | 7.0 | 0.00 | 0.00 | 0.00 | 11 | 976.0 |
| 20260507190045 | 90 | 360 | 2.0 | 13.0 | 0.00 | 0.00 | 0.00 | 11 | 976.1 |
| 20260507185544 | 91 | 360 | 9.0 | 13.0 | 0.00 | 0.00 | 0.00 | 11 | 976.2 |
| 20260507185044 | 91 | 159 | 4.0 | 12.0 | 0.00 | 0.00 | 0.00 | 11 | 976.4 |
| 20260507184544 | 91 | 148 | 6.0 | 12.0 | 0.00 | 0.00 | 0.00 | 11 | 976.3 |
| 20260507184048 | 90 | 360 | 3.0 | 10.0 | 0.00 | 0.00 | 0.00 | 11 | 976.4 |
| 20260507183544 | 89 | 360 | 6.0 | 13.0 | 0.00 | 0.00 | 0.00 | 12 | 976.6 |
| 20260507183049 | 88 | 360 | 5.0 | 13.0 | 0.00 | 0.00 | 0.00 | 12 | 976.7 |
| 20260507182544 | 89 | 360 | 7.0 | 13.0 | 0.00 | 0.00 | 0.00 | 11 | 976.6 |
| 20260507182044 | 90 | 360 | 5.0 | 13.0 | 0.00 | 0.00 | 0.00 | 11 | 976.7 |
| 20260507181545 | 89 | 360 | 4.0 | 12.0 | 0.00 | 0.00 | 0.00 | 11 | 976.8 |
| 20260507181045 | 89 | 360 | 5.0 | 13.0 | 0.00 | 0.00 | 0.00 | 11 | 977.0 |
| 20260507180544 | 89 | 360 | 5.0 | 11.0 | 0.00 | 0.00 | 0.00 | 12 | 976.9 |
| 20260507180053 | 89 | 360 | 4.0 | 10.0 | 0.00 | 0.00 | 0.00 | 11 | 976.9 |
| 20260507175544 | 87 | 360 | 3.0 | 13.0 | 0.00 | 0.00 | 0.00 | 11 | 977.0 |
| 20260507175045 | 87 | 360 | 4.0 | 13.0 | 0.00 | 0.00 | 0.00 | 11 | 977.1 |
| 20260507174546 | 87 | 360 | 7.0 | 13.0 | 0.00 | 0.00 | 0.00 | 12 | 977.0 |
| 20260507174048 | 87 | 360 | 4.0 | 13.0 | 0.00 | 0.00 | 0.00 | 10 | 977.1 |
| 20260507173544 | 87 | 360 | 4.0 | 13.0 | 0.00 | 0.00 | 0.00 | 11 | 977.2 |
| 20260507173048 | 86 | 360 | 8.0 | 13.0 | 0.00 | 0.00 | 0.00 | 10 | 977.3 |
| 20260507172544 | 86 | 360 | 5.0 | 11.0 | 0.00 | 0.00 | 0.00 | 10 | 977.3 |
| 20260507172044 | 85 | 360 | 3.0 | 11.0 | 0.00 | 0.00 | 0.00 | 10 | 977.5 |
| 20260507171600 | 85 | 360 | 5.0 | 11.0 | 0.00 | 0.00 | 0.00 | 12 | 977.6 |
| 20260507171044 | 85 | 360 | 6.0 | 13.0 | 0.00 | 0.00 | 0.00 | 12 | 977.7 |
| 20260507170545 | 86 | 360 | 3.0 | 10.0 | 0.00 | 0.00 | 0.00 | 14 | 977.7 |
| 20260507170045 | 86 | 360 | 5.0 | 10.0 | 0.00 | 0.00 | 0.00 | 16 | 977.7 |
| 20260507165545 | 85 | 360 | 0.0 | 10.0 | 0.00 | 0.00 | 0.00 | 15 | 977.5 |
| 20260507165045 | 85 | 360 | 6.0 | 10.0 | 0.00 | 0.00 | 0.00 | 15 | 977.7 |
| 20260507164549 | 84 | 360 | 3.0 | 10.0 | 0.00 | 0.00 | 0.00 | 15 | 977.8 |
| 20260507164044 | 84 | 360 | 5.0 | 12.0 | 0.00 | 0.00 | 0.00 | 16 | 977.7 |
| 20260507163545 | 83 | 360 | 3.0 | 12.0 | 0.00 | 0.00 | 0.00 | 18 | 977.8 |
| 20260507163049 | 83 | 360 | 4.0 | 9.0 | 0.00 | 0.00 | 0.00 | 20 | 977.9 |
| 20260507162544 | 83 | 360 | 3.0 | 8.0 | 0.00 | 0.00 | 0.00 | 21 | 977.8 |
| 20260507162045 | 82 | 360 | 3.0 | 9.0 | 0.00 | 0.00 | 0.00 | 21 | 977.9 |
| 20260507161545 | 82 | 360 | 4.0 | 9.0 | 0.00 | 0.00 | 0.00 | 21 | 977.9 |
| 20260507161044 | 80 | 360 | 0.0 | 4.0 | 0.00 | 0.00 | 0.00 | 23 | 977.9 |
| 20260507160543 | 80 | 360 | 2.0 | 5.0 | 0.00 | 0.00 | 0.00 | 25 | 978.1 |
| 20260507160051 | 79 | 360 | 1.0 | 6.0 | 0.00 | 0.00 | 0.00 | 26 | 978.0 |
| 20260507155544 | 79 | 360 | 3.0 | 6.0 | 0.00 | 0.00 | 0.00 | 25 | 978.1 |
| 20260507155044 | 79 | 360 | 4.0 | 6.0 | 0.00 | 0.00 | 0.00 | 24 | 978.1 |
| 20260507154544 | 78 | 360 | 3.0 | 5.0 | 0.00 | 0.00 | 0.00 | 24 | 978.1 |
| 20260507154045 | 79 | 360 | 3.0 | 8.0 | 0.00 | 0.00 | 0.00 | 27 | 978.1 |
| 20260507153545 | 78 | 360 | 3.0 | 8.0 | 0.00 | 0.00 | 0.00 | 25 | 978.2 |
| 20260507153046 | 78 | 360 | 0.0 | 0.0 | 0.00 | 0.00 | 0.00 | 27 | 978.2 |
| 20260507152544 | 78 | 360 | 0.0 | 1.0 | 0.00 | 0.00 | 0.00 | 27 | 978.2 |
| 20260507152044 | 77 | 31 | 0.0 | 1.0 | 0.00 | 0.00 | 0.00 | 28 | 978.2 |
| 20260507151548 | 76 | 360 | 0.0 | 2.0 | 0.00 | 0.00 | 0.00 | 29 | 978.1 |
| 20260507151044 | 76 | 360 | 0.0 | 2.0 | 0.00 | 0.00 | 0.00 | 29 | 978.1 |
| 20260507150544 | 75 | 360 | 0.0 | 3.0 | 0.00 | 0.00 | 0.00 | 30 | 978.1 |
| 20260507150044 | 74 | 360 | 1.0 | 4.0 | 0.00 | 0.00 | 0.00 | 31 | 978.1 |